Regional Weather Roundup
Issued by NWS Cleveland, OH

Home | Current Version | Previous Version | Graphics & Text | Print | Product List | Glossary Off
Versions: 1 2 3 4 5 6 7 8 9 10 11 12 13 14 15 16 17 18 19 20 21 22 23 24 25 26 27 28 29 30 31 32 33 34 35 36 37 38 39 40 41 42 43 44 45 46 47 48 49 50

000
ASUS41 KCLE 180512
RWRCLE
OHIO REGIONAL WEATHER ROUNDUP
NATIONAL WEATHER SERVICE WILMINGTON, OH
1200 AM EST SUN FEB 18 2018

NOTE: "FAIR" INDICATES FEW OR NO CLOUDS BELOW 12,000 FEET WITH NO
SIGNIFICANT WEATHER AND/OR OBSTRUCTIONS TO VISIBILITY.

OHZ001>008-015>018-024>027-034-035-043-044-180600-
   NORTHWEST OHIO

CITY           SKY/WX    TMP DP  RH WIND       PRES   REMARKS
DEFIANCE       CLOUDY    33  29  85 VRB7      30.06R WCI  27
FINDLAY        CLOUDY    34  30  85 W15       30.04R WCI  24
TOLEDO EXPRESS CLOUDY    32  32 100 W8        30.03R FOG     WCI  25
TOLEDO EXEC    CLOUDY    32  31  96 W5        30.04R FOG     WCI  27
LIMA           CLOUDY    34  32  92 W17G28    30.05R WCI  23
$$

OHZ009>014-019>023-028>033-038-089-180600-
   NORTHEAST OHIO

CITY           SKY/WX    TMP DP  RH WIND       PRES   REMARKS
CLE-HOPKINS    LGT SNOW  33  31  92 SW6       30.04R VSB 1   WCI  28
CLE-LAKEFRONT  LGT SNOW  33  30  88 SW9       30.02R FOG     WCI  25
CUY CO. ARPT   NOT AVBL
LORAIN-ELYRIA  LGT SNOW  31  27  85 NW8       30.02R VSB 1   WCI  23
ASHTABULA      CLOUDY    30  28  92 SW7       30.01R WCI  23
AKRON-CANTON   LGT SNOW  33  29  85 SW8       30.01R VSB 1   WCI  26
WOOSTER        LGT SNOW  32  31  96 SW6       30.01S FOG     WCI  26
MANSFIELD      CLOUDY    33  31  92 SW14G25   30.01R WCI  23
YOUNGSTOWN     LGT SNOW  30  29  96 SW8       29.99R FOG     WCI  22
$$

OHZ042-051>053-060>062-070>072-077>081-180600-
  SOUTHWEST OHIO

CITY           SKY/WX    TMP DP  RH WIND       PRES   REMARKS
CINC-COVINGTON CLOUDY    36  35  96 W12       30.14R
CINC-LUNKEN    CLOUDY    38  34  85 W10       30.18R
HAMILTON       CLOUDY    37  37 100 W8        30.15R
DAYTON         CLOUDY    34  32  92 W14       30.10R WCI  25
WRIGHT-PAT AFB CLOUDY    35  35 100 W12       30.10R WCI  27
DAYTON GENERAL CLOUDY    36  31  82 W17G23    30.11R
WILMINGTON     LGT RAIN  35  34  96 W17G24    30.10R WCI  25
$$

OHZ036-037-039>041-045>050-054>059-063>069-073>076-082>088-180600-
  CENTRAL AND SOUTHEAST OHIO

CITY           SKY/WX    TMP DP  RH WIND       PRES   REMARKS
COLUMBUS       CLOUDY    35  33  92 SW9       30.07R WCI  28
OSU AIRPORT    CLOUDY    35  33  92 W13       30.07R WCI  26
BOLTON FIELD   CLOUDY    34  33  94 W10       30.08R WCI  26
RICKENBACK AFB CLOUDY    34  34 100 W13       30.08R WCI  25
NEWARK         CLOUDY    34  32  92 W15G22    30.06R WCI  24
MARION         CLOUDY    34  31  88 W10       30.04R WCI  26
LANCASTER      CLOUDY    35  33  92 W12       30.09R WCI  27
ZANESVILLE     LGT SNOW  34  31  88 SW7       30.06R FOG     WCI  28
NEW PHILLY     LGT SNOW  33  32  96 SW5       30.04R FOG     WCI  29
$$



USA.gov is the U.S. government's official web portal to all federal, state and local government web resources and services.